Location: Poughquag
(41.6090°N, 73.6820°W)
Time: 11:13:58
(UTC-04:00)

Transit 2A Rocket - Pass Details

Date: 04 June 2020
Orbit: 584 x 919 km, 66.7° (Epoch: 06 July)

Event Time Altitude Azimuth Distance (km) Brightness Sun altitude
Rises 21:58:03 0° 211° (SSW) 3,040 7.9 -14.1°
Reaches altitude 10° 22:00:16 10° 212° (SSW) 2,176 7.2 -14.3°
Maximum altitude 22:05:15 83° 300° (WNW) 772 5.0 -14.9°
Drops below altitude 10° 22:10:49 10° 29° (NNE) 2,418 7.9 -15.6°
Sets 22:13:23 0° 30° (NNE) 3,405 8.6 -15.9°
